When you browse on this site, cookies collect data to enhance your experience and personalize the content and advertising you see.
Visit our Privacy Policy to learn more. By continuing to use the site, you agree to this use of cookies and data.
  • Em Portugal
  • Lista de países
  • Para 7 dias
  • Temperatura da água
  • Mapas de satélite
  • Mapa do tempo
  • Widgets de tempo
  • user-avatar
    Iniciar Sessão

    Previsão horária em Gabrovo

    Hoje, 18 Abril, Quinta-feira

    Tempo Temperatura Precipitação Vento Pressão Humidade
    00:00 +6°C° 1.2 mm 1 m/s 704 mmHg 92%
    01:00 +6°C° 1.2 mm 1 m/s 704 mmHg 93%
    02:00 +6°C° 0 mm 1 m/s 704 mmHg 94%
    03:00 +6°C° 1.2 mm 1 m/s 704 mmHg 94%
    04:00 +6°C° 1.2 mm 1 m/s 704 mmHg 95%
    05:00 +4°C° 1.2 mm 0 m/s 704 mmHg 95%
    06:00 +5°C° 0.6 mm 0 m/s 705 mmHg 93%
    07:00 +5°C° 0.6 mm 0 m/s 705 mmHg 91%
    08:00 +7°C° 0 mm 1 m/s 705 mmHg 87%
    09:00 +8°C° 0.1 mm 1 m/s 705 mmHg 80%
    10:00 +8°C° 0.1 mm 2 m/s 706 mmHg 73%
    11:00 +9°C° 0.1 mm 2 m/s 706 mmHg 66%
    12:00 +10°C° 0.2 mm 3 m/s 706 mmHg 65%
    13:00 +10°C° 0.2 mm 3 m/s 706 mmHg 64%
    14:00 +10°C° 0.2 mm 3 m/s 706 mmHg 64%
    15:00 +10°C° 0.4 mm 4 m/s 706 mmHg 69%
    16:00 +8°C° 0.4 mm 4 m/s 706 mmHg 75%
    17:00 +7°C° 0.4 mm 4 m/s 706 mmHg 81%
    18:00 +7°C° 0.3 mm 3 m/s 706 mmHg 84%
    19:00 +6°C° 0.3 mm 2 m/s 706 mmHg 87%
    20:00 +6°C° 0.3 mm 1 m/s 706 mmHg 91%
    21:00 +6°C° 0.1 mm 1 m/s 707 mmHg 91%
    22:00 +6°C° 0.1 mm 1 m/s 707 mmHg 92%
    23:00 +5°C° 0.1 mm 1 m/s 707 mmHg 92%

    Amanhã, 19 Abril, Sexta-feira

    Tempo Temperatura Precipitação Vento Pressão Humidade
    00:00 +4°C° 0 mm 2 m/s 707 mmHg 92%
    01:00 +3°C° 0 mm 2 m/s 707 mmHg 91%
    02:00 +3°C° 0 mm 2 m/s 707 mmHg 91%
    03:00 +3°C° 0 mm 2 m/s 707 mmHg 90%
    04:00 +3°C° 0 mm 2 m/s 707 mmHg 90%
    05:00 +3°C° 0 mm 2 m/s 706 mmHg 89%
    06:00 +4°C° 0 mm 2 m/s 707 mmHg 85%
    07:00 +5°C° 0 mm 2 m/s 707 mmHg 81%
    08:00 +7°C° 0 mm 2 m/s 707 mmHg 77%
    09:00 +8°C° 0.1 mm 2 m/s 707 mmHg 72%
    10:00 +9°C° 0.1 mm 2 m/s 707 mmHg 68%
    11:00 +10°C° 0.1 mm 2 m/s 706 mmHg 63%
    12:00 +10°C° 0.2 mm 2 m/s 706 mmHg 59%
    13:00 +12°C° 0.2 mm 2 m/s 706 mmHg 56%
    14:00 +12°C° 0.2 mm 3 m/s 706 mmHg 52%
    15:00 +13°C° 0.4 mm 2 m/s 705 mmHg 53%
    16:00 +13°C° 0.4 mm 2 m/s 705 mmHg 55%
    17:00 +12°C° 0.4 mm 2 m/s 705 mmHg 56%
    18:00 +10°C° 0.9 mm 2 m/s 705 mmHg 67%
    19:00 +8°C° 0.9 mm 2 m/s 705 mmHg 78%
    20:00 +5°C° 0.9 mm 3 m/s 705 mmHg 88%
    21:00 +6°C° 0.1 mm 2 m/s 705 mmHg 88%
    22:00 +5°C° 0.1 mm 2 m/s 705 mmHg 88%
    23:00 +5°C° 0.1 mm 2 m/s 706 mmHg 88%

    Depois de amanhã, 20 Abril, Sábado

    Tempo Temperatura Precipitação Vento Pressão Humidade
    00:00 +4°C° 0 mm 2 m/s 706 mmHg 89%
    01:00 +4°C° 0 mm 2 m/s 706 mmHg 89%
    02:00 +4°C° 0 mm 2 m/s 706 mmHg 90%
    03:00 +3°C° 0.1 mm 2 m/s 707 mmHg 90%
    04:00 +3°C° 0.1 mm 2 m/s 707 mmHg 91%
    05:00 +3°C° 0.1 mm 2 m/s 707 mmHg 91%
    06:00 +3°C° 0 mm 2 m/s 707 mmHg 84%
    07:00 +4°C° 0 mm 2 m/s 708 mmHg 77%
    08:00 +5°C° 0 mm 2 m/s 708 mmHg 70%
    09:00 +6°C° 0 mm 2 m/s 708 mmHg 63%
    10:00 +7°C° 0 mm 3 m/s 708 mmHg 57%
    11:00 +8°C° 0 mm 3 m/s 709 mmHg 50%
    12:00 +9°C° 0.2 mm 3 m/s 708 mmHg 51%
    13:00 +9°C° 0.2 mm 3 m/s 708 mmHg 52%
    14:00 +9°C° 0.2 mm 3 m/s 708 mmHg 53%
    15:00 +9°C° 0.1 mm 3 m/s 708 mmHg 54%
    16:00 +9°C° 0.1 mm 3 m/s 708 mmHg 54%
    17:00 +9°C° 0.1 mm 3 m/s 708 mmHg 55%
    18:00 +7°C° 0 mm 3 m/s 708 mmHg 60%
    19:00 +5°C° 0 mm 2 m/s 708 mmHg 66%
    20:00 +4°C° 0 mm 2 m/s 708 mmHg 71%
    21:00 +4°C° 0 mm 1 m/s 708 mmHg 71%
    22:00 +4°C° 0 mm 1 m/s 708 mmHg 71%
    23:00 +3°C° 0 mm 1 m/s 708 mmHg 71%

    21 Abril, Domingo

    Tempo Temperatura Precipitação Vento Pressão Humidade
    00:00 +3°C° 0 mm 1 m/s 708 mmHg 70%
    01:00 +3°C° 0 mm 1 m/s 708 mmHg 70%
    02:00 +3°C° 0 mm 1 m/s 707 mmHg 70%
    03:00 +3°C° 0 mm 1 m/s 707 mmHg 70%
    04:00 +2°C° 0 mm 1 m/s 707 mmHg 71%
    05:00 +2°C° 0 mm 1 m/s 707 mmHg 71%
    06:00 +4°C° 0 mm 1 m/s 707 mmHg 67%
    07:00 +5°C° 0 mm 0 m/s 707 mmHg 62%
    08:00 +7°C° 0 mm 0 m/s 707 mmHg 57%
    09:00 +9°C° 0 mm 1 m/s 707 mmHg 54%
    10:00 +11°C° 0 mm 1 m/s 708 mmHg 50%
    11:00 +12°C° 0 mm 2 m/s 708 mmHg 46%
    12:00 +12°C° 0 mm 2 m/s 707 mmHg 46%
    13:00 +13°C° 0 mm 2 m/s 707 mmHg 46%
    14:00 +13°C° 0 mm 2 m/s 706 mmHg 46%
    15:00 +13°C° 0 mm 2 m/s 706 mmHg 48%
    16:00 +13°C° 0 mm 2 m/s 706 mmHg 50%
    17:00 +13°C° 0 mm 2 m/s 705 mmHg 51%
    18:00 +10°C° 0 mm 2 m/s 705 mmHg 60%
    19:00 +8°C° 0 mm 2 m/s 705 mmHg 68%
    20:00 +7°C° 0 mm 1 m/s 705 mmHg 77%
    21:00 +6°C° 0 mm 1 m/s 705 mmHg 79%
    22:00 +6°C° 0 mm 1 m/s 705 mmHg 81%
    23:00 +5°C° 0 mm 1 m/s 705 mmHg 83%

    22 Abril, Segunda-feira

    Tempo Temperatura Precipitação Vento Pressão Humidade
    00:00 +5°C° 0 mm 1 m/s 705 mmHg 84%
    01:00 +4°C° 0 mm 1 m/s 705 mmHg 85%
    02:00 +4°C° 0 mm 1 m/s 705 mmHg 86%
    03:00 +4°C° 0 mm 1 m/s 704 mmHg 87%
    04:00 +3°C° 0 mm 1 m/s 704 mmHg 87%
    05:00 +3°C° 0 mm 1 m/s 704 mmHg 88%
    06:00 +5°C° 0 mm 1 m/s 705 mmHg 82%
    07:00 +7°C° 0 mm 1 m/s 705 mmHg 76%
    08:00 +8°C° 0 mm 1 m/s 706 mmHg 70%
    09:00 +9°C° 0 mm 2 m/s 706 mmHg 66%
    10:00 +10°C° 0 mm 2 m/s 706 mmHg 61%
    11:00 +12°C° 0 mm 3 m/s 706 mmHg 56%
    12:00 +12°C° 0 mm 3 m/s 706 mmHg 55%
    13:00 +13°C° 0 mm 3 m/s 706 mmHg 54%
    14:00 +14°C° 0 mm 4 m/s 706 mmHg 53%
    15:00 +13°C° 0 mm 4 m/s 705 mmHg 56%
    16:00 +13°C° 0 mm 4 m/s 705 mmHg 59%
    17:00 +13°C° 0 mm 4 m/s 705 mmHg 62%
    18:00 +11°C° 0 mm 4 m/s 705 mmHg 68%
    19:00 +8°C° 0 mm 4 m/s 705 mmHg 75%
    20:00 +8°C° 0 mm 3 m/s 705 mmHg 82%
    21:00 +7°C° 0 mm 3 m/s 705 mmHg 83%
    22:00 +5°C° 0 mm 3 m/s 706 mmHg 84%
    23:00 +4°C° 0 mm 3 m/s 706 mmHg 86%

    23 Abril, Terça-feira

    Tempo Temperatura Precipitação Vento Pressão Humidade
    00:00 +3°C° 0 mm 3 m/s 706 mmHg 84%
    01:00 +3°C° 0 mm 3 m/s 706 mmHg 82%
    02:00 +3°C° 0 mm 2 m/s 705 mmHg 81%
    03:00 +3°C° 0 mm 2 m/s 705 mmHg 77%
    04:00 +3°C° 0 mm 2 m/s 705 mmHg 73%
    05:00 +3°C° 0 mm 2 m/s 705 mmHg 69%
    06:00 +3°C° 0.1 mm 2 m/s 706 mmHg 69%
    07:00 +4°C° 0.1 mm 2 m/s 706 mmHg 70%
    08:00 +3°C° 0.1 mm 3 m/s 706 mmHg 71%
    09:00 +5°C° 0 mm 3 m/s 706 mmHg 66%
    10:00 +8°C° 0 mm 3 m/s 707 mmHg 60%
    11:00 +8°C° 0 mm 4 m/s 707 mmHg 55%
    12:00 +10°C° 0 mm 4 m/s 706 mmHg 55%
    13:00 +11°C° 0 mm 4 m/s 706 mmHg 55%
    14:00 +12°C° 0 mm 4 m/s 706 mmHg 55%
    15:00 +10°C° 0 mm 5 m/s 705 mmHg 58%
    16:00 +10°C° 0 mm 5 m/s 705 mmHg 60%
    17:00 +10°C° 0 mm 5 m/s 705 mmHg 62%
    18:00 +10°C° 0 mm 4 m/s 704 mmHg 69%
    19:00 +7°C° 0 mm 4 m/s 704 mmHg 76%
    20:00 +7°C° 0 mm 3 m/s 704 mmHg 83%
    21:00 +5°C° 0 mm 3 m/s 704 mmHg 84%
    22:00 +4°C° 0 mm 3 m/s 704 mmHg 85%
    23:00 +3°C° 0 mm 3 m/s 704 mmHg 86%
    Mostrar mais